Location: Newark
(33.2404°N, 35.6778°E)
Time: 11:11:59
(UTC+00:00)

Hubble Space Telescope - Pass Details

Date: 01 February 2020
Orbit: 536 x 540 km, 28.5° (Epoch: 25 February)

Event Time Altitude Azimuth Distance (km) Brightness Sun altitude
Exits shadow 03:39:15 - 241° (WSW) 1,822 3.0 -11.7°
Reaches altitude 10° 03:39:23 10° 240° (WSW) 1,776 3.0 -11.7°
Maximum altitude 03:43:12 38° 172° (S) 827 1.9 -10.9°
Drops below altitude 10° 03:47:01 10° 104° (ESE) 1,778 5.1 -10.1°
Sets 03:49:23 0° 96° (E) 2,670 6.5 -9.6°
